Monticello, KY

2:31 AM EDT on June 23, 2017 (GMT -0400)
Wayne County

Weather History for KEKQ - November, 2011

Change the Weather History Date:

Tuesday, November 1, 2011

  Actual Average Record
Temperature  
Mean Temperature 46 °F -  
Max Temperature 64 °F 69 °F 82 °F (1982)
Min Temperature 27 °F 46 °F 24 °F (2012)
Degree Days  
Heating Degree Days 20    
Moisture  
Dew Point 31 °F    
Average Humidity 68    
Maximum Humidity 100    
Minimum Humidity 28    
Precipitation  
Precipitation 0.00 in - - ()
Sea Level Pressure  
Sea Level Pressure 30.32 in    
Wind  
Wind Speed 0 mph (NW)    
Max Wind Speed 8 mph    
Max Gust Speed -    
Visibility 9 miles    
Events      
Averages and records for this station are not official NWS values.
T = Trace of Precipitation, MM = Missing Value Source: NWS Daily Summary

Daily Weather History Graph

Daily Weather History Graph

Search for Another Location

Airport or City:

Trip Planner

Search our weather history database for the weather conditions in past years. The results will help you decide how hot, cold, wet, or windy it might be!

Date:

Astronomy

Nov. 01, 2011 Rise Set
Actual Time 7:03 AM CDT 5:42 PM CDT
Civil Twilight 6:36 AM CDT 6:09 PM CDT
Nautical Twilight 6:05 AM CDT 6:39 PM CDT
Astronomical Twilight 5:35 AM CDT 7:10 PM CDT
Moon 12:47 PM CDT (11/1) 11:25 PM CDT (11/1)
Length of Visible Light 11h 33m
Length of Day
10h 39m
Waxing Crescent, 40% of the Moon is Illuminated
Nov 1
Waxing Crescent
Nov 2
First Quarter
Nov 10
Full
Nov 18
Last Quarter
Nov 25
New

Hourly Weather History & Observations

Time (CDT) Temp. Dew Point Humidity Pressure Visibility Wind Dir Wind Speed Gust Speed Precip Events Conditions
12:56 AM 30.0 °F 30.0 °F 100% 30.28 in 10.0 mi Calm Calm - N/A   Clear
1:56 AM 31.1 °F 30.0 °F 96% 30.28 in 10.0 mi Calm Calm - N/A   Clear
2:56 AM 29.1 °F 28.0 °F 96% 30.29 in 10.0 mi Calm Calm - N/A   Clear
3:56 AM 29.1 °F 28.0 °F 96% 30.29 in 10.0 mi Calm Calm - N/A   Clear
4:56 AM 30.0 °F 29.1 °F 96% 30.30 in 10.0 mi Calm Calm - N/A   Clear
5:56 AM 28.0 °F 27.1 °F 96% 30.32 in 10.0 mi Calm Calm - N/A   Clear
6:56 AM 27.1 °F 27.1 °F 100% 30.35 in 10.0 mi Calm Calm - N/A   Clear
8:56 AM 39.9 °F 34.9 °F 82% 30.38 in 7.0 mi Calm Calm - N/A   Clear
9:56 AM 48.9 °F 37.9 °F 66% - - North - - N/A   Unknown
10:42 AM 60.8 °F 35.6 °F 39% 30.34 in 1.5 mi Calm Calm - N/A   Haze
10:56 AM 61.0 °F 30.0 °F 31% 30.37 in 10.0 mi Calm Calm - N/A   Partly Cloudy
11:56 AM 63.9 °F 32.0 °F 30% 30.35 in 10.0 mi Calm Calm - N/A   Clear
12:18 PM 64.4 °F 30.2 °F 28% 30.32 in 10.0 mi Calm Calm - N/A   Clear
12:56 PM 63.9 °F 30.0 °F 28% 30.33 in 10.0 mi WNW 8.1 mph - N/A   Clear
1:56 PM 63.9 °F 31.1 °F 29% 30.32 in 10.0 mi NW 4.6 mph - N/A   Clear
3:56 PM 64.9 °F 31.1 °F 28% 30.30 in 10.0 mi Calm Calm - N/A   Clear
4:56 PM 63.0 °F 32.9 °F 32% 30.30 in 10.0 mi Calm Calm - N/A   Clear
5:56 PM 50.0 °F 34.9 °F 56% 30.31 in 8.0 mi Calm Calm - N/A   Clear
7:56 PM 37.9 °F 34.0 °F 86% 30.33 in 10.0 mi Calm Calm - N/A   Clear
8:56 PM 34.9 °F 32.0 °F 89% 30.32 in 10.0 mi Calm Calm - N/A   Clear
9:56 PM 36.0 °F 32.0 °F 86% 30.33 in 10.0 mi Calm Calm - N/A   Clear
10:56 PM 34.0 °F 32.0 °F 92% 30.32 in 9.0 mi Calm Calm - N/A   Clear
11:56 PM 36.0 °F 32.0 °F 86% 30.31 in 8.0 mi Calm Calm - N/A   Clear